Location: Unspecified
(0.0000°N, 0.0000°E)
Time: 22:57:24
(UTC+00:00)

Envisat - Pass Details

Date: 17 July 2017
Orbit: 764 x 766 km, 98.2° (Epoch: 20 November)

Event Time Altitude Azimuth Distance (km) Brightness Sun altitude
Exits shadow 20:48:36 22° 328° (NNW) 1,619 5.1 -37.4°
Drops below altitude 10° 20:50:24 10° 335° (NNW) 2,292 5.9 -37.8°
Sets 20:52:44 0° 340° (NNW) 3,215 6.8 -38.3°
